• In Uzbekistan
  • List of Countries
  • For 7 days
  • Water Temperature
  • Weather Map
  • Weather Widgets
  • user-avatar
    Login

    Hourly Weather Busina

    Today, 7 December, Saturday

    Time Temperature Precipitation Wind Pressure Humidity
    00:00 -2°C° 0 mm 7 mps 746 mmHg 52%
    01:00 -2°C° 0 mm 6 mps 745 mmHg 53%
    02:00 -1°C° 0 mm 7 mps 745 mmHg 53%
    03:00 0°C° 0 mm 7 mps 744 mmHg 53%
    04:00 0°C° 0 mm 7 mps 743 mmHg 53%
    05:00 0°C° 0.1 mm 7 mps 743 mmHg 59%
    06:00 0°C° 0.1 mm 8 mps 743 mmHg 64%
    07:00 0°C° 0 mm 8 mps 743 mmHg 64%
    08:00 +1°C° 0.2 mm 8 mps 743 mmHg 70%
    09:00 +1°C° 0.2 mm 8 mps 743 mmHg 75%
    10:00 +2°C° 0.2 mm 8 mps 743 mmHg 81%
    11:00 +4°C° 0 mm 8 mps 743 mmHg 82%
    12:00 +4°C° 0 mm 8 mps 743 mmHg 83%
    13:00 +4°C° 0 mm 7 mps 743 mmHg 85%
    14:00 +5°C° 0.2 mm 8 mps 743 mmHg 85%
    15:00 +5°C° 0.2 mm 8 mps 743 mmHg 84%
    16:00 +5°C° 0.2 mm 8 mps 743 mmHg 84%
    17:00 +5°C° 0.2 mm 8 mps 744 mmHg 85%
    18:00 +5°C° 0.2 mm 7 mps 745 mmHg 87%
    19:00 +5°C° 0.2 mm 7 mps 745 mmHg 89%
    20:00 +5°C° 0.3 mm 7 mps 746 mmHg 88%
    21:00 +5°C° 0.3 mm 7 mps 746 mmHg 87%
    22:00 +5°C° 0.3 mm 7 mps 746 mmHg 86%
    23:00 +5°C° 0.1 mm 7 mps 746 mmHg 86%

    Tomorrow, 8 December, Sunday

    Time Temperature Precipitation Wind Pressure Humidity
    00:00 +5°C° 0.1 mm 7 mps 747 mmHg 86%
    01:00 +5°C° 0.1 mm 7 mps 747 mmHg 85%
    02:00 +4°C° 0 mm 6 mps 747 mmHg 85%
    03:00 +4°C° 0 mm 6 mps 746 mmHg 85%
    04:00 +4°C° 0 mm 6 mps 746 mmHg 85%
    05:00 +4°C° 0 mm 6 mps 746 mmHg 84%
    06:00 +4°C° 0 mm 6 mps 746 mmHg 83%
    07:00 +4°C° 0 mm 6 mps 747 mmHg 83%
    08:00 +4°C° 0 mm 6 mps 746 mmHg 80%
    09:00 +4°C° 0 mm 7 mps 746 mmHg 78%
    10:00 +4°C° 0 mm 7 mps 745 mmHg 76%
    11:00 +5°C° 0 mm 7 mps 745 mmHg 73%
    12:00 +5°C° 0 mm 7 mps 744 mmHg 71%
    13:00 +5°C° 0 mm 8 mps 743 mmHg 68%
    14:00 +5°C° 0 mm 8 mps 743 mmHg 69%
    15:00 +5°C° 0 mm 8 mps 742 mmHg 69%
    16:00 +5°C° 0 mm 8 mps 742 mmHg 70%
    17:00 +5°C° 0 mm 8 mps 742 mmHg 71%
    18:00 +6°C° 0 mm 8 mps 741 mmHg 72%
    19:00 +6°C° 0 mm 9 mps 741 mmHg 73%
    20:00 +6°C° 0.5 mm 8 mps 741 mmHg 77%
    21:00 +6°C° 0.5 mm 8 mps 740 mmHg 81%
    22:00 +6°C° 0.5 mm 8 mps 740 mmHg 85%
    23:00 +6°C° 0 mm 8 mps 740 mmHg 82%

    Day after tomorrow, 9 December, Monday

    Time Temperature Precipitation Wind Pressure Humidity
    00:00 +6°C° 0 mm 7 mps 740 mmHg 80%
    01:00 +6°C° 0 mm 7 mps 740 mmHg 78%
    02:00 +6°C° 0.4 mm 7 mps 739 mmHg 81%
    03:00 +6°C° 0.4 mm 7 mps 739 mmHg 84%
    04:00 +6°C° 0.4 mm 7 mps 739 mmHg 87%
    05:00 +7°C° 1.1 mm 6 mps 739 mmHg 86%
    06:00 +6°C° 1.1 mm 5 mps 739 mmHg 85%
    07:00 +6°C° 1.1 mm 5 mps 739 mmHg 83%
    08:00 +7°C° 0 mm 5 mps 739 mmHg 80%
    09:00 +7°C° 0 mm 5 mps 739 mmHg 77%
    10:00 +7°C° 0 mm 6 mps 740 mmHg 74%
    11:00 +7°C° 0 mm 6 mps 740 mmHg 69%
    12:00 +7°C° 0 mm 6 mps 740 mmHg 65%
    13:00 +8°C° 0 mm 6 mps 740 mmHg 61%
    14:00 +7°C° 0 mm 6 mps 740 mmHg 62%
    15:00 +7°C° 0 mm 6 mps 739 mmHg 64%
    16:00 +5°C° 0 mm 6 mps 739 mmHg 65%
    17:00 +5°C° 0 mm 7 mps 739 mmHg 67%
    18:00 +5°C° 0 mm 8 mps 739 mmHg 68%
    19:00 +5°C° 0 mm 9 mps 740 mmHg 70%
    20:00 +5°C° 0.1 mm 9 mps 740 mmHg 73%
    21:00 +5°C° 0.1 mm 8 mps 740 mmHg 76%
    22:00 +5°C° 0.1 mm 8 mps 741 mmHg 79%
    23:00 +4°C° 0 mm 8 mps 741 mmHg 80%

    10 December, Tuesday

    Time Temperature Precipitation Wind Pressure Humidity
    00:00 +4°C° 0 mm 7 mps 742 mmHg 81%
    01:00 +3°C° 0 mm 7 mps 743 mmHg 81%
    02:00 +3°C° 0 mm 7 mps 743 mmHg 79%
    03:00 +3°C° 0 mm 7 mps 744 mmHg 77%
    04:00 +2°C° 0 mm 7 mps 744 mmHg 74%
    05:00 +2°C° 0 mm 7 mps 745 mmHg 77%
    06:00 +2°C° 0 mm 7 mps 746 mmHg 79%
    07:00 0°C° 0 mm 8 mps 747 mmHg 81%
    08:00 +2°C° 0.4 mm 7 mps 747 mmHg 83%
    09:00 +2°C° 0.4 mm 7 mps 748 mmHg 85%
    10:00 +3°C° 0.4 mm 6 mps 749 mmHg 87%
    11:00 +3°C° 0.3 mm 7 mps 750 mmHg 86%
    12:00 +3°C° 0.3 mm 7 mps 750 mmHg 85%
    13:00 +3°C° 0.3 mm 7 mps 751 mmHg 83%
    14:00 +3°C° 0 mm 7 mps 752 mmHg 85%
    15:00 +2°C° 0 mm 6 mps 753 mmHg 86%
    16:00 +2°C° 0 mm 6 mps 754 mmHg 87%
    17:00 +2°C° 0.2 mm 5 mps 754 mmHg 86%
    18:00 +3°C° 0.2 mm 4 mps 755 mmHg 85%
    19:00 +3°C° 0.2 mm 4 mps 756 mmHg 84%
    20:00 +2°C° 0 mm 3 mps 756 mmHg 83%
    21:00 +3°C° 0 mm 2 mps 756 mmHg 82%
    22:00 +2°C° 0 mm 2 mps 756 mmHg 81%
    23:00 +3°C° 0 mm 1 mps 756 mmHg 81%

    11 December, Wednesday

    Time Temperature Precipitation Wind Pressure Humidity
    00:00 +2°C° 0 mm 1 mps 757 mmHg 82%
    01:00 +2°C° 0 mm 1 mps 757 mmHg 82%
    02:00 +1°C° 0 mm 1 mps 756 mmHg 82%
    03:00 -1°C° 0 mm 2 mps 756 mmHg 82%
    04:00 -1°C° 0 mm 2 mps 756 mmHg 81%
    05:00 -1°C° 0 mm 3 mps 755 mmHg 81%
    06:00 -1°C° 0 mm 3 mps 755 mmHg 81%
    07:00 -2°C° 0 mm 4 mps 754 mmHg 81%
    08:00 -1°C° 0 mm 5 mps 754 mmHg 77%
    09:00 0°C° 0 mm 5 mps 754 mmHg 74%
    10:00 -1°C° 0 mm 6 mps 754 mmHg 71%
    11:00 +1°C° 0 mm 6 mps 753 mmHg 68%
    12:00 +1°C° 0 mm 6 mps 752 mmHg 66%
    13:00 +2°C° 0 mm 6 mps 752 mmHg 63%
    14:00 +1°C° 0 mm 5 mps 751 mmHg 65%
    15:00 0°C° 0 mm 4 mps 751 mmHg 67%
    16:00 0°C° 0 mm 4 mps 751 mmHg 69%
    17:00 -1°C° 0 mm 4 mps 751 mmHg 70%
    18:00 -1°C° 0 mm 4 mps 751 mmHg 71%
    19:00 -1°C° 0 mm 4 mps 750 mmHg 71%
    20:00 -1°C° 0 mm 4 mps 750 mmHg 72%
    21:00 -2°C° 0 mm 4 mps 750 mmHg 72%
    22:00 -2°C° 0 mm 4 mps 750 mmHg 73%
    23:00 -2°C° 0 mm 4 mps 750 mmHg 74%

    12 December, Thursday

    Time Temperature Precipitation Wind Pressure Humidity
    00:00 -2°C° 0 mm 4 mps 749 mmHg 74%
    01:00 -2°C° 0 mm 4 mps 749 mmHg 75%
    02:00 -2°C° 0 mm 4 mps 749 mmHg 76%
    03:00 -2°C° 0 mm 4 mps 748 mmHg 76%
    04:00 -2°C° 0 mm 4 mps 748 mmHg 76%
    05:00 -1°C° 0 mm 3 mps 748 mmHg 77%
    06:00 -1°C° 0 mm 3 mps 748 mmHg 78%
    07:00 -1°C° 0 mm 3 mps 747 mmHg 79%
    08:00 0°C° 0 mm 3 mps 747 mmHg 77%
    09:00 -1°C° 0 mm 4 mps 747 mmHg 75%
    10:00 0°C° 0 mm 4 mps 747 mmHg 73%
    11:00 0°C° 0 mm 4 mps 747 mmHg 72%
    12:00 0°C° 0 mm 4 mps 747 mmHg 70%
    13:00 +1°C° 0 mm 4 mps 746 mmHg 69%
    14:00 0°C° 0.1 mm 4 mps 746 mmHg 77%
    15:00 0°C° 0.1 mm 3 mps 746 mmHg 86%
    16:00 0°C° 0.1 mm 3 mps 746 mmHg 94%
    17:00 0°C° 0 mm 3 mps 746 mmHg 95%
    18:00 0°C° 0 mm 3 mps 746 mmHg 96%
    19:00 0°C° 0 mm 3 mps 746 mmHg 97%
    20:00 0°C° 0 mm 3 mps 746 mmHg 96%
    21:00 0°C° 0 mm 3 mps 746 mmHg 96%
    22:00 -1°C° 0 mm 4 mps 747 mmHg 96%
    23:00 0°C° 0 mm 3 mps 746 mmHg 95%
    Show more